,,Stat6,,Stat2,,Stat8,,Stat9,,Stat10,,Wind1,,Wind1,
time,status,PA1M_AVG,status,PR1M_SUM,status,RH1M_AVG,status,SR1M_AVG,status,TA1M_AVG,status,W1dAve1m,status,W1sAve1m,
2008-10-29, 00:00:00,VALID,918.676,VALID,0,VALID,97.7966,VALID,-0.0339617,VALID,20.1728,VALID,13,VALID,0.508176,
2008-10-29, 00:01:00,VALID,918.66,VALID,0,VALID,97.6325,VALID,-0.0169808,VALID,20.1925,VALID,18,VALID,0.781059,
2008-10-29, 00:02:00,VALID,918.639,VALID,0,VALID,97.5893,VALID,0,VALID,20.186,VALID,3,VALID,0.00550426,
2008-10-29, 00:03:00,VALID,918.65,VALID,0,VALID,97.6808,VALID,-0.0339617,VALID,20.1893,VALID,349,VALID,0,
2008-10-29, 00:04:00,VALID,918.638,VALID,0,VALID,97.5842,VALID,-0.0509425,VALID,20.21,VALID,349,VALID,0,
2008-10-29, 00:05:00,VALID,918.623,VALID,0,VALID,97.6452,VALID,-0.0509425,VALID,20.216,VALID,342,VALID,0,
2008-10-29, 00:06:00,VALID,918.614,VALID,0,VALID,97.6999,VALID,-0.0169808,VALID,20.2125,VALID,330,VALID,0,
2008-10-29, 00:07:00,VALID,918.634,VALID,0,VALID,97.6859,VALID,-0.0509425,VALID,20.1958,VALID,341,VALID,0,
2008-10-29, 00:08:00,VALID,918.63,VALID,0,VALID,97.6389,VALID,-0.0169808,VALID,20.193,VALID,338,VALID,0,
2008-10-29, 00:09:00,VALID,918.645,VALID,0,VALID,97.8169,VALID,-0.0169808,VALID,20.1958,VALID,334,VALID,0,
2008-10-29, 00:10:00,VALID,918.646,VALID,0,VALID,97.6783,VALID,0,VALID,20.1963,VALID,336,VALID,0,
2008-10-29, 00:11:00,VALID,918.627,VALID,0,VALID,97.6923,VALID,-0.0679233,VALID,20.1965,VALID,351,VALID,0,
2008-10-29, 00:12:00,VALID,918.616,VALID,0,VALID,97.6643,VALID,-0.0509425,VALID,20.1965,VALID,351,VALID,0,
2008-10-29, 00:13:00,VALID,918.596,VALID,0,VALID,97.4469,VALID,-0.0339617,VALID,20.1571,VALID,351,VALID,0,
2008-10-29, 00:14:00,VALID,918.58,VALID,0,VALID,97.6859,VALID,-0.0169808,VALID,20.1411,VALID,351,VALID,0,
2008-10-29, 00:15:00,VALID,918.554,VALID,0,VALID,97.8487,VALID,-0.0509425,VALID,20.1473,VALID,358,VALID,0,
2008-10-29, 00:16:00,VALID,918.544,VALID,0,VALID,97.8169,VALID,-0.0509425,VALID,20.1506,VALID,14,VALID,0.0794837,
2008-10-29, 00:17:00,VALID,918.519,VALID,0,VALID,97.719,VALID,-0.0509425,VALID,20.1409,VALID,14,VALID,0,
2008-10-29, 00:18:00,VALID,918.525,VALID,0,VALID,97.8029,VALID,-0.0509425,VALID,20.1374,VALID,6,VALID,0,
2008-10-29, 00:19:00,VALID,918.509,VALID,0,VALID,97.6758,VALID,-0.0339617,VALID,20.1571,VALID,3,VALID,0,
2008-10-29, 00:20:00,VALID,918.479,VALID,0,VALID,97.4837,VALID,-0.0509425,VALID,20.1536,VALID,6,VALID,0,
2008-10-29, 00:21:00,VALID,918.451,VALID,0,VALID,97.4291,VALID,-0.0679233,VALID,20.1538,VALID,12,VALID,0,
2008-10-29, 00:22:00,VALID,918.429,VALID,0,VALID,97.2587,VALID,0,VALID,20.1279,VALID,12,VALID,0,
2008-10-29, 00:23:00,VALID,918.423,VALID,0,VALID,97.2142,VALID,-0.0339617,VALID,20.0892,VALID,12,VALID,0,
2008-10-29, 00:24:00,VALID,918.427,VALID,0,VALID,97.335,VALID,0,VALID,20.037,VALID,12,VALID,0,
2008-10-29, 00:25:00,VALID,918.426,VALID,0,VALID,97.5422,VALID,-0.0849042,VALID,20.021,VALID,12,VALID,0,
2008-10-29, 00:26:00,VALID,918.434,VALID,0,VALID,97.6249,VALID,-0.0679233,VALID,20.0373,VALID,12,VALID,0,
2008-10-29, 00:27:00,VALID,918.421,VALID,0,VALID,97.4621,VALID,-0.0679233,VALID,20.0403,VALID,14,VALID,0,
2008-10-29, 00:28:00,VALID,918.418,VALID,0,VALID,97.4176,VALID,-0.0509425,VALID,19.9988,VALID,21,VALID,0,
2008-10-29, 00:29:00,VALID,918.411,VALID,0,VALID,97.5817,VALID,-0.0509425,VALID,19.9818,VALID,29,VALID,0,
2008-10-29, 00:30:00,VALID,918.383,VALID,0,VALID,97.5461,VALID,-0.0849042,VALID,19.9621,VALID,29,VALID,0,
2008-10-29, 00:31:00,VALID,918.363,VALID,0,VALID,97.6567,VALID,-0.0339617,VALID,19.9624,VALID,29,VALID,0,
2008-10-29, 00:32:00,VALID,918.323,VALID,0,VALID,97.6325,VALID,-0.0849042,VALID,19.9761,VALID,29,VALID,0,
2008-10-29, 00:33:00,VALID,918.305,VALID,0,VALID,97.6796,VALID,-0.0509425,VALID,19.9661,VALID,45,VALID,0,
2008-10-29, 00:34:00,VALID,918.305,VALID,0,VALID,97.7432,VALID,-0.0509425,VALID,19.9626,VALID,45,VALID,0,
2008-10-29, 00:35:00,VALID,918.308,VALID,0,VALID,97.8296,VALID,-0.0679233,VALID,19.9918,VALID,45,VALID,0,
2008-10-29, 00:36:00,VALID,918.315,VALID,0,VALID,97.7266,VALID,-0.0849042,VALID,20.0248,VALID,45,VALID,0,
2008-10-29, 00:37:00,VALID,918.309,VALID,0,VALID,97.6236,VALID,-0.0679233,VALID,20.054,VALID,45,VALID,0,
2008-10-29, 00:38:00,VALID,918.298,VALID,0,VALID,97.4863,VALID,-0.101885,VALID,20.0765,VALID,45,VALID,0,
2008-10-29, 00:39:00,VALID,918.275,VALID,0,VALID,97.3757,VALID,-0.0679233,VALID,20.1084,VALID,45,VALID,0,
2008-10-29, 00:40:00,VALID,918.262,VALID,0,VALID,97.2383,VALID,-0.0339617,VALID,20.1765,VALID,45,VALID,0,
2008-10-29, 00:41:00,VALID,918.236,VALID,0,VALID,96.97,VALID,-0.0339617,VALID,20.2157,VALID,45,VALID,0,
2008-10-29, 00:42:00,VALID,918.224,VALID,0,VALID,96.7488,VALID,-0.0169808,VALID,20.235,VALID,45,VALID,0,
2008-10-29, 00:43:00,VALID,918.201,VALID,0,VALID,96.5669,VALID,-0.0339617,VALID,20.2677,VALID,45,VALID,0,
2008-10-29, 00:44:00,VALID,918.21,VALID,0,VALID,96.2617,VALID,-0.0509425,VALID,20.2801,VALID,69,VALID,0,
2008-10-29, 00:45:00,VALID,918.22,VALID,0,VALID,95.9769,VALID,-0.0339617,VALID,20.2701,VALID,32,VALID,0.00133384,
2008-10-29, 00:46:00,VALID,918.234,VALID,0,VALID,95.9476,VALID,-0.0169808,VALID,20.2385,VALID,32,VALID,0,
2008-10-29, 00:47:00,VALID,918.254,VALID,0,VALID,96.0837,VALID,-0.0509425,VALID,20.1993,VALID,32,VALID,0,
2008-10-29, 00:48:00,VALID,918.247,VALID,0,VALID,96.1575,VALID,-0.0509425,VALID,20.193,VALID,32,VALID,0,
2008-10-29, 00:49:00,VALID,918.251,VALID,0,VALID,96.2414,VALID,0,VALID,20.1925,VALID,32,VALID,0,
2008-10-29, 00:50:00,VALID,918.222,VALID,0,VALID,96.1269,VALID,0.0849042,VALID,20.1947,VALID,32,VALID,0,
2008-10-29, 00:51:00,VALID,918.195,VALID,0,VALID,96.0634,VALID,0.0679233,VALID,20.1882,VALID,32,VALID,0,
2008-10-29, 00:52:00,VALID,918.165,VALID,0,VALID,96.0341,VALID,0.0849042,VALID,20.165,VALID,32,VALID,0,
2008-10-29, 00:53:00,VALID,918.153,VALID,0,VALID,96.1257,VALID,0.0849042,VALID,20.1523,VALID,32,VALID,0,
2008-10-29, 00:54:00,VALID,918.139,VALID,0,VALID,96.1854,VALID,0.0849042,VALID,20.1358,VALID,32,VALID,0,
2008-10-29, 00:55:00,VALID,918.127,VALID,0,VALID,96.2287,VALID,0.0679233,VALID,20.1296,VALID,32,VALID,0,
2008-10-29, 00:56:00,VALID,918.14,VALID,0,VALID,96.3024,VALID,0.0509425,VALID,20.1064,VALID,32,VALID,0.0457031,
2008-10-29, 00:57:00,VALID,918.16,VALID,0,VALID,96.3876,VALID,0.0679233,VALID,20.0904,VALID,32,VALID,0.0152244,
2008-10-29, 00:58:00,VALID,918.142,VALID,0,VALID,96.3457,VALID,0.0849042,VALID,20.0742,VALID,32,VALID,0,
2008-10-29, 00:59:00,VALID,918.112,VALID,0,VALID,96.408,VALID,0.101885,VALID,20.0485,VALID,32,VALID,0,
2008-10-29, 01:00:00,VALID,918.084,VALID,0,VALID,96.5237,VALID,0.0679233,VALID,20.013,VALID,32,VALID,0,
2008-10-29, 01:01:00,VALID,918.054,VALID,0,VALID,96.6814,VALID,0.0679233,VALID,19.9808,VALID,33,VALID,0,
2008-10-29, 01:02:00,VALID,918.028,VALID,0,VALID,96.9446,VALID,0.0849042,VALID,19.9416,VALID,34,VALID,0,
2008-10-29, 01:03:00,VALID,918.021,VALID,0,VALID,97.1315,VALID,0.101885,VALID,19.9609,VALID,40,VALID,0,
2008-10-29, 01:04:00,VALID,918.021,VALID,0,VALID,97.0756,VALID,0.0509425,VALID,19.9611,VALID,41,VALID,0,
2008-10-29, 01:05:00,VALID,917.994,VALID,0,VALID,97.0667,VALID,-0.0339617,VALID,19.9689,VALID,41,VALID,0,
2008-10-29, 01:06:00,VALID,917.953,VALID,0,VALID,97.1951,VALID,-0.0509425,VALID,19.9883,VALID,41,VALID,0.107701,
2008-10-29, 01:07:00,VALID,917.899,VALID,0,VALID,97.1277,VALID,-0.0169808,VALID,20.0238,VALID,41,VALID,0,
2008-10-29, 01:08:00,VALID,917.859,VALID,0,VALID,97.0133,VALID,-0.0339617,VALID,20.0695,VALID,46,VALID,0,
2008-10-29, 01:09:00,VALID,917.835,VALID,0,VALID,96.9281,VALID,-0.0339617,VALID,20.1087,VALID,56,VALID,0,
2008-10-29, 01:10:00,VALID,917.819,VALID,0,VALID,96.7627,VALID,-0.0339617,VALID,20.1341,VALID,56,VALID,0,
2008-10-29, 01:11:00,VALID,917.835,VALID,0,VALID,96.6305,VALID,-0.0169808,VALID,20.1309,VALID,56,VALID,0,
2008-10-29, 01:12:00,VALID,917.832,VALID,0,VALID,96.5707,VALID,0,VALID,20.1144,VALID,54,VALID,0,
2008-10-29, 01:13:00,VALID,917.811,VALID,0,VALID,96.5974,VALID,-0.0339617,VALID,20.0987,VALID,52,VALID,0,
2008-10-29, 01:14:00,VALID,917.781,VALID,0,VALID,96.5644,VALID,0,VALID,20.0757,VALID,52,VALID,0,
2008-10-29, 01:15:00,VALID,917.736,VALID,0,VALID,96.6267,VALID,-0.0169808,VALID,20.0303,VALID,52,VALID,0,
2008-10-29, 01:16:00,VALID,917.702,VALID,0,VALID,96.8162,VALID,-0.0339617,VALID,19.9886,VALID,52,VALID,0,
2008-10-29, 01:17:00,VALID,917.681,VALID,0,VALID,97.087,VALID,-0.0169808,VALID,19.9689,VALID,52,VALID,0,
2008-10-29, 01:18:00,VALID,917.667,VALID,0,VALID,97.2282,VALID,0.0169808,VALID,19.9751,VALID,52,VALID,0,
2008-10-29, 01:19:00,VALID,917.675,VALID,0,VALID,97.0629,VALID,-0.0339617,VALID,19.9491,VALID,52,VALID,0,
2008-10-29, 01:20:00,VALID,917.661,VALID,0,VALID,97.0565,VALID,-0.0169808,VALID,19.9137,VALID,52,VALID,0,
2008-10-29, 01:21:00,VALID,917.659,VALID,0,VALID,96.8607,VALID,-0.0169808,VALID,19.8261,VALID,52,VALID,0,
2008-10-29, 01:22:00,VALID,917.665,VALID,0,VALID,97.2816,VALID,0,VALID,19.7772,VALID,52,VALID,0,
2008-10-29, 01:23:00,VALID,917.642,VALID,0,VALID,97.6694,VALID,-0.0169808,VALID,19.7255,VALID,52,VALID,0,
2008-10-29, 01:24:00,VALID,917.646,VALID,0,VALID,98.1285,VALID,0,VALID,19.7188,VALID,52,VALID,0,
2008-10-29, 01:25:00,VALID,917.632,VALID,0,VALID,98.323,VALID,-0.0169808,VALID,19.7412,VALID,52,VALID,0,
2008-10-29, 01:26:00,VALID,917.627,VALID,0,VALID,98.3713,VALID,-0.0679233,VALID,19.7804,VALID,52,VALID,0,
2008-10-29, 01:27:00,VALID,917.608,VALID,0,VALID,98.3344,VALID,0,VALID,19.8064,VALID,27,VALID,0,
2008-10-29, 01:28:00,VALID,917.606,VALID,0,VALID,98.2721,VALID,0,VALID,19.8258,VALID,24,VALID,0,
2008-10-29, 01:29:00,VALID,917.583,VALID,0,VALID,98.1857,VALID,-0.0169808,VALID,19.8583,VALID,24,VALID,0,
2008-10-29, 01:30:00,VALID,917.563,VALID,0,VALID,98.089,VALID,0,VALID,19.8748,VALID,24,VALID,0,
2008-10-29, 01:31:00,VALID,917.547,VALID,0,VALID,97.6808,VALID,-0.0169808,VALID,19.8548,VALID,24,VALID,0,
2008-10-29, 01:32:00,VALID,917.537,VALID,0,VALID,97.5588,VALID,0,VALID,19.8323,VALID,24,VALID,0,
2008-10-29, 01:33:00,VALID,917.528,VALID,0,VALID,97.2879,VALID,-0.0169808,VALID,19.7737,VALID,24,VALID,0,
2008-10-29, 01:34:00,VALID,917.529,VALID,0,VALID,97.2599,VALID,-0.0339617,VALID,19.6863,VALID,24,VALID,0,
2008-10-29, 01:35:00,VALID,917.526,VALID,0,VALID,97.8055,VALID,-0.0849042,VALID,19.6379,VALID,11,VALID,0,
2008-10-29, 01:36:00,VALID,917.544,VALID,0,VALID,98.3243,VALID,-0.0849042,VALID,19.6539,VALID,4,VALID,0,
2008-10-29, 01:37:00,VALID,917.542,VALID,0,VALID,98.763,VALID,-0.0169808,VALID,19.7063,VALID,1,VALID,0,
2008-10-29, 01:38:00,VALID,917.534,VALID,0,VALID,98.4883,VALID,-0.0509425,VALID,19.7253,VALID,1,VALID,0,
2008-10-29, 01:39:00,VALID,917.512,VALID,0,VALID,98.3472,VALID,0,VALID,19.7253,VALID,360,VALID,0,
2008-10-29, 01:40:00,VALID,917.47,VALID,0,VALID,98.3624,VALID,-0.0509425,VALID,19.7515,VALID,360,VALID,0,
2008-10-29, 01:41:00,VALID,917.449,VALID,0,VALID,98.2048,VALID,-0.0169808,VALID,19.7475,VALID,360,VALID,0,
2008-10-29, 01:42:00,VALID,917.452,VALID,0,VALID,97.967,VALID,0,VALID,19.7283,VALID,360,VALID,0,
2008-10-29, 01:43:00,VALID,917.47,VALID,0,VALID,97.8716,VALID,-0.0509425,VALID,19.7058,VALID,360,VALID,0,
2008-10-29, 01:44:00,VALID,917.469,VALID,0,VALID,97.719,VALID,-0.0509425,VALID,19.6993,VALID,360,VALID,0,
2008-10-29, 01:45:00,VALID,917.451,VALID,0,VALID,97.705,VALID,-0.0339617,VALID,19.7023,VALID,360,VALID,0,
2008-10-29, 01:46:00,VALID,917.412,VALID,0,VALID,97.8195,VALID,-0.0339617,VALID,19.7023,VALID,360,VALID,0,
2008-10-29, 01:47:00,VALID,917.386,VALID,0,VALID,97.8334,VALID,-0.0509425,VALID,19.7023,VALID,360,VALID,0,
2008-10-29, 01:48:00,VALID,917.369,VALID,0,VALID,98.0229,VALID,0,VALID,19.6761,VALID,360,VALID,0,
2008-10-29, 01:49:00,VALID,917.374,VALID,0,VALID,98.3383,VALID,-0.0169808,VALID,19.7155,VALID,360,VALID,0,
2008-10-29, 01:50:00,VALID,917.372,VALID,0,VALID,98.323,VALID,-0.0679233,VALID,19.7153,VALID,360,VALID,0,
2008-10-29, 01:51:00,VALID,917.382,VALID,0,VALID,98.365,VALID,-0.0339617,VALID,19.712,VALID,360,VALID,0,
2008-10-29, 01:52:00,VALID,917.377,VALID,0,VALID,98.4031,VALID,0,VALID,19.7123,VALID,360,VALID,0,
2008-10-29, 01:53:00,VALID,917.39,VALID,0,VALID,98.4069,VALID,-0.0339617,VALID,19.7188,VALID,360,VALID,0,
2008-10-29, 01:54:00,VALID,917.349,VALID,0,VALID,98.5099,VALID,-0.0339617,VALID,19.7288,VALID,360,VALID,0,
2008-10-29, 01:55:00,VALID,917.324,VALID,0,VALID,98.6943,VALID,-0.0169808,VALID,19.7412,VALID,360,VALID,0,
2008-10-29, 01:56:00,VALID,917.304,VALID,0,VALID,98.8139,VALID,-0.0339617,VALID,19.7577,VALID,360,VALID,0,
2008-10-29, 01:57:00,VALID,917.287,VALID,0,VALID,98.5532,VALID,0,VALID,19.7153,VALID,360,VALID,0,
2008-10-29, 01:58:00,VALID,917.276,VALID,0,VALID,98.7134,VALID,-0.0169808,VALID,19.6696,VALID,360,VALID,0,
2008-10-29, 01:59:00,VALID,917.251,VALID,0,VALID,98.9855,VALID,-0.0169808,VALID,19.6664,VALID,12,VALID,0,
2008-10-29, 02:00:00,VALID,917.232,VALID,0,VALID,99.133,VALID,-0.0169808,VALID,19.6696,VALID,24,VALID,0,
2008-10-29, 02:01:00,VALID,917.196,VALID,0,VALID,99.4217,VALID,-0.0339617,VALID,19.7055,VALID,27,VALID,0,
2008-10-29, 02:02:00,VALID,917.176,VALID,0,VALID,99.4764,VALID,-0.0509425,VALID,19.7223,VALID,35,VALID,0,
2008-10-29, 02:03:00,VALID,917.155,VALID,0,VALID,99.292,VALID,-0.0169808,VALID,19.7188,VALID,41,VALID,0,
2008-10-29, 02:04:00,VALID,917.138,VALID,0,VALID,99.1915,VALID,-0.0339617,VALID,19.6798,VALID,45,VALID,0,
2008-10-29, 02:05:00,VALID,917.115,VALID,0,VALID,99.6417,VALID,-0.0509425,VALID,19.6866,VALID,47,VALID,0,
2008-10-29, 02:06:00,VALID,917.088,VALID,0,VALID,99.7078,VALID,-0.0169808,VALID,19.722,VALID,47,VALID,0,
2008-10-29, 02:07:00,VALID,917.068,VALID,0,VALID,99.6455,VALID,-0.0509425,VALID,19.732,VALID,54,VALID,0,
2008-10-29, 02:08:00,VALID,917.047,VALID,0,VALID,99.5463,VALID,-0.0849042,VALID,19.722,VALID,55,VALID,0,
2008-10-29, 02:09:00,VALID,917.051,VALID,0,VALID,99.6671,VALID,0,VALID,19.7415,VALID,60,VALID,0,
2008-10-29, 02:10:00,VALID,917.053,VALID,0,VALID,99.5844,VALID,-0.0339617,VALID,19.758,VALID,60,VALID,0,
2008-10-29, 02:11:00,VALID,917.044,VALID,0,VALID,99.5959,VALID,-0.0509425,VALID,19.7639,VALID,60,VALID,0,
2008-10-29, 02:12:00,VALID,917.036,VALID,0,VALID,99.5323,VALID,-0.0169808,VALID,19.7739,VALID,60,VALID,0,
2008-10-29, 02:13:00,VALID,917.03,VALID,0,VALID,99.5132,VALID,-0.0509425,VALID,19.7672,VALID,60,VALID,0,
2008-10-29, 02:14:00,VALID,917.032,VALID,0,VALID,99.3975,VALID,-0.0679233,VALID,19.7739,VALID,60,VALID,0,
2008-10-29, 02:15:00,VALID,917.031,VALID,0,VALID,98.7045,VALID,-0.0169808,VALID,19.7188,VALID,60,VALID,0,
2008-10-29, 02:16:00,VALID,917.037,VALID,0,VALID,98.3319,VALID,-0.0339617,VALID,19.6377,VALID,38,VALID,0,
2008-10-29, 02:17:00,VALID,917.017,VALID,0,VALID,98.2976,VALID,-0.0339617,VALID,19.5436,VALID,36,VALID,0,
2008-10-29, 02:18:00,VALID,917.002,VALID,0,VALID,98.9868,VALID,-0.0849042,VALID,19.5141,VALID,36,VALID,0,
2008-10-29, 02:19:00,VALID,916.98,VALID,0,VALID,99.4268,VALID,-0.0169808,VALID,19.5136,VALID,36,VALID,0,
2008-10-29, 02:20:00,VALID,916.938,VALID,0,VALID,99.7981,VALID,-0.0339617,VALID,19.5466,VALID,36,VALID,0,
2008-10-29, 02:21:00,VALID,916.922,VALID,0,VALID,100,VALID,-0.0169808,VALID,19.5857,VALID,36,VALID,0,
2008-10-29, 02:22:00,VALID,916.9,VALID,0,VALID,100,VALID,-0.0169808,VALID,19.572,VALID,36,VALID,0,
2008-10-29, 02:23:00,VALID,916.874,VALID,0,VALID,99.9753,VALID,0,VALID,19.5588,VALID,36,VALID,0,
2008-10-29, 02:24:00,VALID,916.844,VALID,0,VALID,100,VALID,-0.0339617,VALID,19.585,VALID,47,VALID,0,
2008-10-29, 02:25:00,VALID,916.829,VALID,0,VALID,100,VALID,-0.0339617,VALID,19.6147,VALID,73,VALID,0,
2008-10-29, 02:26:00,VALID,916.827,VALID,0,VALID,100,VALID,-0.0509425,VALID,19.6606,VALID,78,VALID,0,
2008-10-29, 02:27:00,VALID,916.858,VALID,0,VALID,100,VALID,-0.0169808,VALID,19.6696,VALID,74,VALID,0,
2008-10-29, 02:28:00,VALID,916.878,VALID,0,VALID,99.9316,VALID,-0.0169808,VALID,19.6536,VALID,74,VALID,0,
2008-10-29, 02:29:00,VALID,916.88,VALID,0,VALID,99.9575,VALID,-0.0339617,VALID,19.6639,VALID,74,VALID,0,
2008-10-29, 02:30:00,VALID,916.866,VALID,0,VALID,99.8057,VALID,-0.0169808,VALID,19.6244,VALID,74,VALID,0,
2008-10-29, 02:31:00,VALID,916.852,VALID,0,VALID,99.9753,VALID,-0.0509425,VALID,19.6279,VALID,68,VALID,0,
2008-10-29, 02:32:00,VALID,916.84,VALID,0,VALID,100,VALID,-0.0679233,VALID,19.6407,VALID,50,VALID,0,
2008-10-29, 02:33:00,VALID,916.845,VALID,0,VALID,99.8845,VALID,-0.0339617,VALID,19.6017,VALID,50,VALID,0,
2008-10-29, 02:34:00,VALID,916.864,VALID,0,VALID,100,VALID,-0.0509425,VALID,19.5917,VALID,49,VALID,0,
2008-10-29, 02:35:00,VALID,916.887,VALID,0,VALID,100,VALID,-0.0339617,VALID,19.6017,VALID,46,VALID,0,
2008-10-29, 02:36:00,VALID,916.88,VALID,0,VALID,100,VALID,-0.0679233,VALID,19.5857,VALID,46,VALID,0,
2008-10-29, 02:37:00,VALID,916.856,VALID,0,VALID,100,VALID,-0.0339617,VALID,19.579,VALID,33,VALID,0,
2008-10-29, 02:38:00,VALID,916.839,VALID,0,VALID,99.9674,VALID,-0.0849042,VALID,19.5695,VALID,32,VALID,0,
2008-10-29, 02:39:00,VALID,916.821,VALID,0,VALID,99.9952,VALID,-0.0339617,VALID,19.5433,VALID,32,VALID,0,
2008-10-29, 02:40:00,VALID,916.811,VALID,0,VALID,100,VALID,0,VALID,19.5431,VALID,32,VALID,0,
2008-10-29, 02:41:00,VALID,916.797,VALID,0,VALID,100,VALID,-0.0339617,VALID,19.5301,VALID,32,VALID,0,
2008-10-29, 02:42:00,VALID,916.767,VALID,0,VALID,100,VALID,-0.0169808,VALID,19.563,VALID,32,VALID,0,
2008-10-29, 02:43:00,VALID,916.724,VALID,0,VALID,100,VALID,-0.0339617,VALID,19.5663,VALID,32,VALID,0,
2008-10-29, 02:44:00,VALID,916.703,VALID,0,VALID,100,VALID,-0.0339617,VALID,19.5011,VALID,32,VALID,0,
2008-10-29, 02:45:00,VALID,916.692,VALID,0,VALID,99.9817,VALID,-0.0169808,VALID,19.449,VALID,32,VALID,0,
2008-10-29, 02:46:00,VALID,916.691,VALID,0,VALID,99.9494,VALID,-0.0679233,VALID,19.4233,VALID,32,VALID,0,
2008-10-29, 02:47:00,VALID,916.684,VALID,0,VALID,99.6646,VALID,-0.0169808,VALID,19.3779,VALID,32,VALID,0,
2008-10-29, 02:48:00,VALID,916.68,VALID,0,VALID,99.4585,VALID,-0.0339617,VALID,19.3292,VALID,32,VALID,0,
2008-10-29, 02:49:00,VALID,916.661,VALID,0,VALID,99.6302,VALID,-0.0169808,VALID,19.2773,VALID,32,VALID,0,
2008-10-29, 02:50:00,VALID,916.624,VALID,0,VALID,99.6607,VALID,-0.0509425,VALID,19.2286,VALID,32,VALID,0,
2008-10-29, 02:51:00,VALID,916.599,VALID,0,VALID,99.9385,VALID,-0.0679233,VALID,19.1899,VALID,32,VALID,0,
2008-10-29, 02:52:00,VALID,916.558,VALID,0,VALID,100,VALID,-0.0339617,VALID,19.1802,VALID,32,VALID,0,
2008-10-29, 02:53:00,VALID,916.556,VALID,0,VALID,100,VALID,-0.0169808,VALID,19.1997,VALID,32,VALID,0,
2008-10-29, 02:54:00,VALID,916.55,VALID,0,VALID,100,VALID,-0.0509425,VALID,19.1737,VALID,32,VALID,0,
2008-10-29, 02:55:00,VALID,916.565,VALID,0,VALID,100,VALID,0,VALID,19.154,VALID,32,VALID,0,
2008-10-29, 02:56:00,VALID,916.583,VALID,0,VALID,100,VALID,-0.0339617,VALID,19.1114,VALID,32,VALID,0,
2008-10-29, 02:57:00,VALID,916.596,VALID,0,VALID,100,VALID,-0.0509425,VALID,19.1533,VALID,331,VALID,0,
2008-10-29, 02:58:00,VALID,916.578,VALID,0,VALID,100,VALID,-0.0509425,VALID,19.2251,VALID,315,VALID,0,
2008-10-29, 02:59:00,VALID,916.575,VALID,0,VALID,100,VALID,-0.0509425,VALID,19.2771,VALID,315,VALID,0,
2008-10-29, 03:00:00,VALID,916.544,VALID,0,VALID,100,VALID,-0.0339617,VALID,19.293,VALID,315,VALID,0,
2008-10-29, 03:01:00,VALID,916.529,VALID,0,VALID,100,VALID,-0.0339617,VALID,19.3097,VALID,315,VALID,0,
2008-10-29, 03:02:00,VALID,916.546,VALID,0,VALID,100,VALID,-0.0339617,VALID,19.3132,VALID,315,VALID,0,
2008-10-29, 03:03:00,VALID,916.598,VALID,0,VALID,100,VALID,-0.0339617,VALID,19.323,VALID,315,VALID,0,
2008-10-29, 03:04:00,VALID,916.655,VALID,0,VALID,99.6709,VALID,-0.0509425,VALID,19.2321,VALID,315,VALID,0,
2008-10-29, 03:05:00,VALID,916.7,VALID,0,VALID,99.8166,VALID,-0.0679233,VALID,19.2059,VALID,315,VALID,0,
2008-10-29, 03:06:00,VALID,916.711,VALID,0,VALID,100,VALID,-0.0339617,VALID,19.2863,VALID,315,VALID,0,
2008-10-29, 03:07:00,VALID,916.703,VALID,0,VALID,100,VALID,-0.0169808,VALID,19.3709,VALID,315,VALID,0,
2008-10-29, 03:08:00,VALID,916.672,VALID,0,VALID,100,VALID,-0.0339617,VALID,19.423,VALID,315,VALID,0,
2008-10-29, 03:09:00,VALID,916.643,VALID,0,VALID,99.9926,VALID,-0.0679233,VALID,19.3716,VALID,315,VALID,0,
2008-10-29, 03:10:00,VALID,916.626,VALID,0,VALID,99.9448,VALID,-0.0169808,VALID,19.2646,VALID,315,VALID,0,
2008-10-29, 03:11:00,VALID,916.626,VALID,0,VALID,100,VALID,-0.0169808,VALID,19.2351,VALID,315,VALID,0,
2008-10-29, 03:12:00,VALID,916.619,VALID,0,VALID,100,VALID,-0.0509425,VALID,19.1668,VALID,315,VALID,0,
2008-10-29, 03:13:00,VALID,916.61,VALID,0,VALID,99.9341,VALID,-0.0339617,VALID,19.1019,VALID,315,VALID,0,
2008-10-29, 03:14:00,VALID,916.607,VALID,0,VALID,99.9265,VALID,-0.0169808,VALID,19.0697,VALID,315,VALID,0,
2008-10-29, 03:15:00,VALID,916.574,VALID,0,VALID,99.7943,VALID,0,VALID,18.9946,VALID,315,VALID,0,
2008-10-29, 03:16:00,VALID,916.525,VALID,0,VALID,99.9207,VALID,0,VALID,18.9429,VALID,315,VALID,0,
2008-10-29, 03:17:00,VALID,916.487,VALID,0,VALID,100,VALID,-0.0679233,VALID,18.9065,VALID,246,VALID,0.104687,
2008-10-29, 03:18:00,VALID,916.456,VALID,0,VALID,100,VALID,-0.0509425,VALID,18.9464,VALID,155,VALID,0,
2008-10-29, 03:19:00,VALID,916.43,VALID,0,VALID,100,VALID,-0.0169808,VALID,18.9462,VALID,149,VALID,0,
2008-10-29, 03:20:00,VALID,916.4,VALID,0,VALID,100,VALID,-0.0509425,VALID,18.9402,VALID,140,VALID,0.0513889,
2008-10-29, 03:21:00,VALID,916.414,VALID,0,VALID,100,VALID,-0.0509425,VALID,18.911,VALID,144,VALID,0,
2008-10-29, 03:22:00,VALID,916.42,VALID,0,VALID,100,VALID,-0.0169808,VALID,18.9042,VALID,163,VALID,0.0143229,
2008-10-29, 03:23:00,VALID,916.436,VALID,0,VALID,100,VALID,-0.0339617,VALID,18.8785,VALID,162,VALID,0.352493,
2008-10-29, 03:24:00,VALID,916.425,VALID,0,VALID,100,VALID,-0.0169808,VALID,18.8296,VALID,154,VALID,1.07831,
2008-10-29, 03:25:00,VALID,916.41,VALID,0,VALID,100,VALID,-0.0679233,VALID,18.778,VALID,150,VALID,0.699886,
2008-10-29, 03:26:00,VALID,916.406,VALID,0,VALID,100,VALID,-0.0339617,VALID,18.7488,VALID,154,VALID,0.197129,
2008-10-29, 03:27:00,VALID,916.399,VALID,0,VALID,100,VALID,-0.0339617,VALID,18.7099,VALID,148,VALID,1.04483,
2008-10-29, 03:28:00,VALID,916.395,VALID,0,VALID,100,VALID,0,VALID,18.6772,VALID,145,VALID,0.880451,
2008-10-29, 03:29:00,VALID,916.399,VALID,0,VALID,100,VALID,-0.0169808,VALID,18.6772,VALID,144,VALID,0.748512,
2008-10-29, 03:30:00,VALID,916.395,VALID,0,VALID,100,VALID,0,VALID,18.7099,VALID,153,VALID,0.462153,
2008-10-29, 03:31:00,VALID,916.381,VALID,0,VALID,100,VALID,-0.0339617,VALID,18.7485,VALID,153,VALID,0.702344,
2008-10-29, 03:32:00,VALID,916.376,VALID,0,VALID,100,VALID,0,VALID,18.761,VALID,151,VALID,0,
2008-10-29, 03:33:00,VALID,916.365,VALID,0,VALID,100,VALID,0,VALID,18.7648,VALID,146,VALID,0,
2008-10-29, 03:34:00,VALID,916.361,VALID,0,VALID,100,VALID,-0.0169808,VALID,18.765,VALID,131,VALID,0,
2008-10-29, 03:35:00,VALID,916.36,VALID,0,VALID,100,VALID,-0.0339617,VALID,18.7675,VALID,126,VALID,0,
2008-10-29, 03:36:00,VALID,916.334,VALID,0,VALID,100,VALID,-0.0339617,VALID,18.8037,VALID,133,VALID,0,
2008-10-29, 03:37:00,VALID,916.33,VALID,0,VALID,100,VALID,0,VALID,18.8329,VALID,131,VALID,0,
2008-10-29, 03:38:00,VALID,916.299,VALID,0,VALID,100,VALID,-0.0339617,VALID,18.8396,VALID,130,VALID,0,
2008-10-29, 03:39:00,VALID,916.281,VALID,0,VALID,100,VALID,0,VALID,18.8289,VALID,135,VALID,0,
2008-10-29, 03:40:00,VALID,916.292,VALID,0,VALID,100,VALID,0,VALID,18.8493,VALID,141,VALID,0,
2008-10-29, 03:41:00,VALID,916.279,VALID,0,VALID,100,VALID,-0.0339617,VALID,18.8489,VALID,149,VALID,0,
2008-10-29, 03:42:00,VALID,916.253,VALID,0,VALID,100,VALID,0,VALID,18.872,VALID,152,VALID,0,
2008-10-29, 03:43:00,VALID,916.239,VALID,0,VALID,100,VALID,-0.0169808,VALID,18.8815,VALID,149,VALID,0.656977,
2008-10-29, 03:44:00,VALID,916.26,VALID,0,VALID,100,VALID,0,VALID,18.898,VALID,147,VALID,0.997024,
2008-10-29, 03:45:00,VALID,916.259,VALID,0,VALID,100,VALID,-0.0509425,VALID,18.9045,VALID,153,VALID,0.671342,